Regional Weather Roundup
Issued by NWS

Home | Current Version | Previous Version | Graphics & Text | Print | Product List | Glossary On
Versions: 1 2 3 4 5 6 7 8 9 10 11 12 13 14 15 16 17 18 19 20 21 22 23 24 25 26 27 28 29 30 31 32 33 34 35 36 37 38 39 40 41 42 43 44 45 46 47 48 49 50
000
ASUS43 KLSX 221107
RWRMO

WEATHER SUMMARY FOR MISSOURI
NATIONAL WEATHER SERVICE SPRINGFIELD MO
600 AM CDT SAT JUL 22 2017

NOTE: "FAIR" INDICATES FEW OR NO CLOUDS BELOW 12,000 FEET WITH NO
       SIGNIFICANT WEATHER AND/OR OBSTRUCTIONS TO VISIBILITY.
       CURRENT SKY AND/OR WEATHER CONDITIONS ARE NOT AVAILABLE FOR
       CHILLICOTHE AND FARMINGTON.

MOZ001>031-035>038-043-044-053-054-221200-
...NORTHERN AND WESTERN MISSOURI...

CITY           SKY/WX    TMP DP  RH WIND       PRES   REMARKS
KANSAS CTY INT PTCLDY    82  72  71 SW13      29.83R
KANSAS C DTWN  CLEAR     85  72  65 SW16G24   29.81S HX  91
LEE`S SUMMIT   CLEAR     82  73  74 SW15      29.85S
ST JOSEPH      CLEAR     81  73  76 SW12      29.79R
CHILLICOTHE      N/A     80  74  81 S7        29.80S
KIRKSVILLE     MOCLDY    82  71  69 SW10G20   29.80F THUNDER

$$
MOZ066>068-077>081-088>096-101>105-221200-
...SOUTHWEST MISSOURI...

CITY           SKY/WX    TMP DP  RH WIND       PRES   REMARKS
SPRINGFIELD    CLEAR     75  71  87 S6        29.94S
JOPLIN         CLEAR     79  72  79 S6        29.92R
BRANSON          N/A     75  68  78 SW5       29.97S

$$
MOZ032>034-039>042-045>050-055>058-069>072-221200-
...CENTRAL MISSOURI...

CITY           SKY/WX    TMP DP  RH WIND       PRES   REMARKS
COLUMBIA       CLEAR     75  70  84 S7        29.87F
JEFFERSON CITY CLEAR     80  73  79 VRB3      29.87S
ROLLA          CLEAR     75  72  90 S9        29.91S
SEDALIA        CLEAR     81  73  76 SW14      29.88S
WHITEMAN AFB   CLEAR     81  74  79 SW15      29.85S
WARRENSBURG    CLEAR     79  70  73 S10       29.85S
OSAGE BEACH    CLEAR     80  71  74 SW7       29.91S

$$
MOZ051-052-059>065-221200-
...EAST CENTRAL MISSOURI...

CITY           SKY/WX    TMP DP  RH WIND       PRES   REMARKS
ST LOUIS INTL  PTCLDY    85  72  65 SW9       29.86S HX  91
SPIRIT OF STL  PTCLDY    81  74  79 SW8       29.85S
ST CHARLES     CLEAR     80  73  79 SW7       29.84S

$$
MOZ072>076-082>087-097>100-106>115-221200-
...SOUTH CENTRAL AND SOUTHEAST MISSOURI...

CITY           SKY/WX    TMP DP  RH WIND       PRES   REMARKS
CAPE GIRARDEAU CLEAR     77  73  87 SW5       29.90S
FARMINGTON     CLEAR     77  73  87 SW3       29.93F
POPLAR BLUFF   CLEAR     77  77 100 S3        29.91S FOG
WEST PLAINS    CLEAR     74  72  93 W3        29.98R

$$



USA.gov is the U.S. government's official web portal to all federal, state and local government web resources and services.